User: anonymous   Login
Location: Ford County Road and Bridge Department
(37.7686°N, 99.9762°W)
Time: 02:04:47
(UTC+00:00)
Language:

DMSP B5D1-3 - Orbit

View from above orbital plane
View from above orbital plane
View from above satellite
View from above satellite

Ground track
Ground track

The orbit data is extracted from the following two-line orbital elements,

1 10820U 78042A   20091.78220974  .00000060  00000-0  36141-4 0  9998
2 10820  98.5435 286.0041 0008339 258.3988 101.6261 14.35298856187457
Epoch (UTC): 31 March 2020 18:46:22
Eccentricity: 0.0008339
inclination: 98.5435°
perigee height: 768 km
apogee height: 780 km
right ascension of ascending node: 286.0041°
argument of perigee: 258.3988°
revolutions per day: 14.35298856
mean anomaly at epoch: 101.6261°
orbit number at epoch: 18745

The dashed part of the orbit path shows where the satellite is in the earth's shadow,  

DLR